San Carlos, CA

1:08 PM PST on February 25, 2017 (GMT -0800)
San Carlos

Weather History for KSQL - February, 2012

Change the Weather History Date:

Sunday, February 12, 2012

  Actual Average Record
Temperature  
Mean Temperature 50 °F -  
Max Temperature 57 °F 61 °F 72 °F (1971)
Min Temperature 44 °F 42 °F 29 °F (1949)
Degree Days  
Heating Degree Days 14    
Moisture  
Dew Point 43 °F    
Average Humidity 77    
Maximum Humidity 93    
Minimum Humidity 58    
Precipitation  
Precipitation 0.00 in - - ()
Sea Level Pressure  
Sea Level Pressure 30.04 in    
Wind  
Wind Speed 5 mph (SW)    
Max Wind Speed 15 mph    
Max Gust Speed 17 mph    
Visibility 10 miles    
Events Rain    
Averages and records for this station are not official NWS values.
T = Trace of Precipitation, MM = Missing Value Source: NWS Daily Summary

Daily Weather History Graph

Daily Weather History Graph

Search for Another Location

Airport or City:

Trip Planner

Search our weather history database for the weather conditions in past years. The results will help you decide how hot, cold, wet, or windy it might be!

Date:

Astronomy

Feb. 12, 2012 Rise Set
Actual Time 7:02 AM PST 5:44 PM PST
Civil Twilight 6:35 AM PST 6:11 PM PST
Nautical Twilight 6:04 AM PST 6:42 PM PST
Astronomical Twilight 5:34 AM PST 7:12 PM PST
Moon 11:40 PM PST (2/12) 9:32 AM PST (2/12)
Length of Visible Light 11h 36m
Length of Day
10h 42m
Waning Gibbous, 71% of the Moon is Illuminated
Feb 12
Waning Gibbous
Feb 14
Last Quarter
Feb 21
New
Feb 29
First Quarter
Mar 8
Full

Hourly Weather History & Observations

Time (PST) Temp. Windchill Dew Point Humidity Pressure Visibility Wind Dir Wind Speed Gust Speed Precip Events Conditions
12:15 AM 50.0 °F - 44.6 °F 82% 30.07 in 10.0 mi WSW 3.5 mph - N/A   Overcast
12:30 AM 48.2 °F - 44.6 °F 87% 30.07 in 10.0 mi SW 3.5 mph - N/A   Overcast
12:55 AM 48.2 °F - 44.6 °F 87% 30.07 in 10.0 mi South 3.5 mph - N/A   Overcast
1:10 AM 48.2 °F - 44.6 °F 87% 30.07 in 10.0 mi South 3.5 mph - N/A   Overcast
1:30 AM 48.2 °F - 44.6 °F 87% 30.07 in 10.0 mi Calm Calm - N/A   Overcast
1:55 AM 48.2 °F - 44.6 °F 87% 30.08 in 10.0 mi West 3.5 mph - N/A   Overcast
2:15 AM 50.0 °F - 44.6 °F 82% 30.08 in 10.0 mi WSW 4.6 mph - N/A   Overcast
2:35 AM 50.0 °F - 46.4 °F 87% 30.07 in 10.0 mi West 4.6 mph - N/A   Overcast
2:55 AM 50.0 °F - 44.6 °F 82% 30.07 in 10.0 mi WNW 3.5 mph - N/A   Overcast
3:10 AM 50.0 °F - 44.6 °F 82% 30.05 in 10.0 mi West 6.9 mph - N/A   Mostly Cloudy
3:30 AM 48.2 °F - 44.6 °F 87% 30.05 in 10.0 mi South 4.6 mph - N/A   Mostly Cloudy
3:55 AM 46.4 °F 45.2 °F 42.8 °F 87% 30.05 in 10.0 mi South 3.5 mph - N/A   Overcast
4:15 AM 44.6 °F 43.1 °F 42.8 °F 93% 30.05 in 10.0 mi SSW 3.5 mph - N/A   Overcast
4:30 AM 46.4 °F 45.2 °F 42.8 °F 87% 30.05 in 10.0 mi SSW 3.5 mph - N/A   Overcast
4:55 AM 46.4 °F 44.3 °F 42.8 °F 87% 30.05 in 10.0 mi SSW 4.6 mph - N/A   Overcast
5:10 AM 48.2 °F - 44.6 °F 87% 30.06 in 10.0 mi SW 4.6 mph - N/A   Overcast
5:35 AM 48.2 °F - 44.6 °F 87% 30.07 in 10.0 mi Calm Calm - N/A   Overcast
5:55 AM 48.2 °F - 44.6 °F 87% 30.06 in 10.0 mi SSW 3.5 mph - N/A   Overcast
6:15 AM 50.0 °F - 44.6 °F 82% 30.06 in 10.0 mi Calm Calm - N/A   Overcast
6:30 AM 48.2 °F - 44.6 °F 87% 30.06 in 10.0 mi South 4.6 mph - N/A   Mostly Cloudy
6:51 AM 46.4 °F 45.2 °F 42.8 °F 87% 30.06 in 10.0 mi SSW 3.5 mph - N/A   Mostly Cloudy
7:47 AM 46.4 °F - 44.6 °F 93% 30.07 in 10.0 mi Calm Calm - N/A   Mostly Cloudy
8:47 AM 50.0 °F - 44.6 °F 82% 30.09 in 10.0 mi South 5.8 mph - N/A   Mostly Cloudy
9:49 AM 51.8 °F - 44.6 °F 76% 30.09 in 10.0 mi ESE 3.5 mph - N/A   Scattered Clouds
11:48 AM 57.2 °F - 44.6 °F 63% 30.07 in 10.0 mi WNW 9.2 mph - N/A   Scattered Clouds
12:47 PM 57.2 °F - 44.6 °F 63% 30.05 in 10.0 mi WSW 11.5 mph - N/A   Scattered Clouds
1:47 PM 57.2 °F - 44.6 °F 63% 30.03 in 10.0 mi West 13.8 mph - N/A   Mostly Cloudy
2:47 PM 55.4 °F - 42.8 °F 63% 30.02 in 10.0 mi West 11.5 mph 17.3 mph N/A   Mostly Cloudy
3:49 PM 53.6 °F - 42.8 °F 67% 30.03 in 10.0 mi West 15.0 mph - N/A   Mostly Cloudy
4:49 PM 53.6 °F - 42.8 °F 67% 30.02 in 10.0 mi West 9.2 mph - N/A   Overcast
5:53 PM 51.8 °F - 44.6 °F 76% 30.03 in 10.0 mi WSW 8.1 mph - N/A   Overcast
6:51 PM 51.8 °F - 44.6 °F 76% 30.04 in 10.0 mi West 6.9 mph - N/A   Overcast
7:53 PM 51.8 °F - 42.8 °F 71% 30.03 in 10.0 mi West 5.8 mph - N/A   Overcast
8:47 PM 51.8 °F - 37.4 °F 58% 30.02 in 10.0 mi South 3.5 mph - N/A Rain Light Rain
9:10 PM 50.0 °F - 39.2 °F 66% 30.01 in 10.0 mi South 4.6 mph - N/A   Overcast
9:55 PM 50.0 °F - 41.0 °F 71% 30.02 in 10.0 mi SSW 4.6 mph - N/A   Overcast
10:15 PM 50.0 °F - 37.4 °F 62% 30.01 in 8.0 mi SSW 3.5 mph - N/A Rain Light Rain
10:35 PM 50.0 °F - 35.6 °F 58% 30.01 in 10.0 mi South 9.2 mph - N/A   Overcast
10:55 PM 48.2 °F - 37.4 °F 66% 30.00 in 10.0 mi SSE 11.5 mph - N/A   Overcast
11:10 PM 48.2 °F - 37.4 °F 66% 30.00 in 10.0 mi SSE 13.8 mph - N/A   Overcast
11:30 PM 48.2 °F - 37.4 °F 66% 29.99 in 10.0 mi SSE 15.0 mph - N/A   Overcast
11:55 PM 48.2 °F - 39.2 °F 71% 29.99 in 10.0 mi SSE 8.1 mph - N/A   Overcast